Regional Weather Roundup
Issued by NWS Cleveland, OH

Home | Current Version | Previous Version | Text Only | Print | Product List | Glossary Off
Versions: 1 2 3 4 5 6 7 8 9 10 11 12 13 14 15 16 17 18 19 20 21 22 23 24 25 26 27 28 29 30 31 32 33 34 35 36 37 38 39 40 41 42 43 44 45 46 47 48 49 50

000
ASUS41 KCLE 070400
RWRCLE
OHIO REGIONAL WEATHER ROUNDUP
NATIONAL WEATHER SERVICE WILMINGTON, OH
1200 AM EDT TUE JUL 07 2015

NOTE: "FAIR" INDICATES FEW OR NO CLOUDS BELOW 12,000 FEET WITH NO
SIGNIFICANT WEATHER AND/OR OBSTRUCTIONS TO VISIBILITY.

OHZ001>008-015>018-024>027-034-035-043-044-070500-
   NORTHWEST OHIO

CITY           SKY/WX    TMP DP  RH WIND       PRES   REMARKS
DEFIANCE       CLOUDY    76  66  71 S8        29.94F
FINDLAY        PTCLDY    72  65  78 S9        29.96S
TOLEDO EXPRESS CLOUDY    73  65  75 S7        29.94F
TOLEDO EXEC    MOCLDY    73  64  73 S8        29.95S
LIMA           MOCLDY    73  65  75 S9        29.98S
$$

OHZ009>014-019>023-028>033-038-089-070500-
   NORTHEAST OHIO

CITY           SKY/WX    TMP DP  RH WIND       PRES   REMARKS
CLE-HOPKINS    PTCLDY    73  66  78 SW7       30.00R
CLE-LAKEFRONT  MOCLDY    76  68  76 S8        29.97R
CUY CO. ARPT   NOT AVBL
LORAIN-ELYRIA  CLEAR     69  62  78 SW8       29.99S
ASHTABULA      CLEAR     67  65  93 S8        29.99F
AKRON-CANTON   PTCLDY    72  66  81 S8        30.02S
WOOSTER        NOT AVBL
MANSFIELD      CLEAR     66  61  84 S6        30.03R
YOUNGSTOWN     PTCLDY    70  69  97 S7        30.01F
$$

OHZ042-051>053-060>062-070>072-077>081-070500-
  SOUTHWEST OHIO

CITY           SKY/WX    TMP DP  RH WIND       PRES   REMARKS
CINC-COVINGTON MOCLDY    74  69  85 S7        30.03S
CINC-LUNKEN    MOCLDY    73  69  87 S7        30.02S
HAMILTON       MOCLDY    74  69  85 CALM      30.02R
DAYTON         NOT AVBL
WRIGHT-PAT AFB PTCLDY    74  67  77 S7        30.00F
DAYTON GENERAL MOCLDY    72  67  84 S6        30.01S
WILMINGTON     CLEAR     71  65  81 S7        30.03S HAZE
$$

OHZ036-037-039>041-045>050-054>059-063>069-073>076-082>088-070500-
  CENTRAL AND SOUTHEAST OHIO

CITY           SKY/WX    TMP DP  RH WIND       PRES   REMARKS
COLUMBUS       MOCLDY    72  63  73 S3        30.02R
OSU AIRPORT    CLEAR     73  63  70 S7        30.02S
BOLTON FIELD   NOT AVBL
RICKENBACK AFB NOT AVBL
NEWARK         CLEAR     64  62  93 CALM      30.03R
MARION         CLEAR     69  62  78 S6        30.01R
LANCASTER      CLEAR     65  61  87 CALM      30.04R
ZANESVILLE     CLEAR     70  66  87 SW3       30.03S FOG
NEW PHILLY     PTCLDY    69  68  96 SE3       30.02F
$$



USA.gov is the U.S. government's official web portal to all federal, state and local government web resources and services.